North Bend, OR

5:21 PM PST on December 03, 2016 (GMT -0800)
North Bend Municipal

Weather History for KOTH - March, 2012

Change the Weather History Date:

Wednesday, March 7, 2012

  Actual Average Record
Temperature  
Mean Temperature 41 °F 47 °F  
Max Temperature 54 °F 54 °F 86 °F (1905)
Min Temperature 28 °F 41 °F 28 °F (1924)
Degree Days  
Heating Degree Days 24 18  
Month to date heating degree days 153 126  
Since 1 July heating degree days 3303 3300  
Cooling Degree Days 0 0  
Month to date cooling degree days 0 0  
Year to date cooling degree days 0 0  
Moisture  
Dew Point 26 °F    
Average Humidity 59    
Maximum Humidity 75    
Minimum Humidity 41    
Precipitation  
Precipitation 0.00 in 0.26 in 1.25 in (1986)
Month to date precipitation 0.72 1.91  
Year to date precipitation 8.61 19.69  
Sea Level Pressure  
Sea Level Pressure 30.41 in    
Wind  
Wind Speed 6 mph (East)    
Max Wind Speed 11 mph    
Max Gust Speed 15 mph    
Visibility 10 miles    
Events      
T = Trace of Precipitation, MM = Missing Value Source: NWS Daily Summary

Daily Weather History Graph

Daily Weather History Graph

Search for Another Location

Airport or City:

Trip Planner

Search our weather history database for the weather conditions in past years. The results will help you decide how hot, cold, wet, or windy it might be!

Date:

Astronomy

Mar. 07, 2012 Rise Set
Actual Time 6:42 AM PST 6:14 PM PST
Civil Twilight 6:13 AM PST 6:42 PM PST
Nautical Twilight 5:40 AM PST 7:15 PM PST
Astronomical Twilight 5:07 AM PST 7:49 PM PST
Moon 5:58 PM PST (3/7) 5:55 AM PST (3/7)
Length of Visible Light 12h 29m
Length of Day
11h 32m
Full, 100% of the Moon is Illuminated
Mar 7
Full
Mar 8
Full
Mar 14
Last Quarter
Mar 22
New
Mar 30
First Quarter

Hourly Weather History & Observations

Time (PST) Temp. Windchill Dew Point Humidity Pressure Visibility Wind Dir Wind Speed Gust Speed Precip Events Conditions
12:15 AM 33.8 °F 30.8 °F 24.8 °F 70% 30.40 in 10.0 mi SE 3.5 mph - N/A   Clear
12:35 AM 30.2 °F 26.7 °F 21.2 °F 69% 30.40 in 6.0 mi SSE 3.5 mph - N/A   Clear
12:55 AM 30.2 °F 25.4 °F 21.2 °F 69% 30.40 in 9.0 mi SSE 4.6 mph - N/A   Clear
1:15 AM 30.2 °F 25.4 °F 21.2 °F 69% 30.41 in 10.0 mi SSE 4.6 mph - N/A   Clear
1:35 AM 28.4 °F 22.2 °F 21.2 °F 74% 30.41 in 10.0 mi SSE 5.8 mph - N/A   Clear
1:55 AM 30.2 °F 26.7 °F 21.2 °F 69% 30.41 in 10.0 mi SSE 3.5 mph - N/A   Clear
2:15 AM 28.4 °F 22.2 °F 19.4 °F 69% 30.41 in 10.0 mi SE 5.8 mph - N/A   Clear
2:35 AM 28.4 °F 22.2 °F 21.2 °F 74% 30.40 in 10.0 mi SE 5.8 mph - N/A   Clear
2:55 AM 28.4 °F 21.2 °F 21.2 °F 74% 30.40 in 10.0 mi SE 6.9 mph - N/A   Clear
3:15 AM 28.4 °F 22.2 °F 21.2 °F 74% 30.41 in 10.0 mi SSE 5.8 mph - N/A   Clear
3:35 AM 28.4 °F 22.2 °F 21.2 °F 74% 30.40 in 10.0 mi SE 5.8 mph - N/A   Clear
3:55 AM 30.2 °F 23.4 °F 21.2 °F 69% 30.40 in 10.0 mi SSE 6.9 mph - N/A   Clear
4:15 AM 30.2 °F 23.4 °F 21.2 °F 69% 30.40 in 10.0 mi SE 6.9 mph - N/A   Clear
4:35 AM 30.2 °F 25.4 °F 21.2 °F 69% 30.41 in 10.0 mi SE 4.6 mph - N/A   Clear
4:55 AM 30.2 °F 25.4 °F 21.2 °F 69% 30.41 in 10.0 mi SE 4.6 mph - N/A   Clear
5:15 AM 30.2 °F 22.6 °F 21.2 °F 69% 30.41 in 10.0 mi SE 8.1 mph - N/A   Clear
5:35 AM 30.2 °F 23.4 °F 21.2 °F 69% 30.41 in 10.0 mi SE 6.9 mph - N/A   Clear
5:55 AM 28.4 °F 23.3 °F 21.2 °F 74% 30.42 in 10.0 mi SSE 4.6 mph - N/A   Clear
6:15 AM 28.4 °F 23.3 °F 21.2 °F 74% 30.42 in 10.0 mi SE 4.6 mph - N/A   Clear
6:35 AM 28.4 °F 22.2 °F 21.2 °F 74% 30.43 in 10.0 mi SE 5.8 mph - N/A   Clear
6:55 AM 28.4 °F 23.3 °F 21.2 °F 74% 30.43 in 10.0 mi SSE 4.6 mph - N/A   Clear
7:15 AM 28.4 °F 23.3 °F 21.2 °F 74% 30.44 in 10.0 mi SSE 4.6 mph - N/A   Clear
7:35 AM 30.2 °F 26.7 °F 23.0 °F 75% 30.44 in 10.0 mi SSE 3.5 mph - N/A   Clear
7:55 AM 32.0 °F 28.7 °F 24.8 °F 75% 30.46 in 10.0 mi SSE 3.5 mph - N/A   Clear
8:15 AM 33.8 °F - 24.8 °F 70% 30.46 in 10.0 mi Calm Calm - N/A   Clear
8:35 AM 35.6 °F - 26.6 °F 70% 30.47 in 10.0 mi Calm Calm - N/A   Clear
8:55 AM 37.4 °F - 26.6 °F 65% 30.47 in 10.0 mi Calm Calm - N/A   Clear
9:15 AM 39.2 °F - 28.4 °F 65% 30.47 in 10.0 mi Calm Calm - N/A   Clear
9:35 AM 37.4 °F - 28.4 °F 70% 30.47 in 10.0 mi Calm Calm - N/A   Clear
9:55 AM 39.2 °F - 28.4 °F 65% 30.47 in 10.0 mi Calm Calm - N/A   Clear
10:15 AM 44.6 °F - 30.2 °F 57% 30.47 in 10.0 mi Calm Calm - N/A   Clear
10:35 AM 44.6 °F - 28.4 °F 53% 30.47 in 10.0 mi Calm Calm - N/A   Clear
10:55 AM 46.4 °F 43.5 °F 28.4 °F 50% 30.46 in 10.0 mi North 5.8 mph - N/A   Clear
11:15 AM 46.4 °F 43.5 °F 28.4 °F 50% 30.46 in 10.0 mi North 5.8 mph - N/A   Clear
11:35 AM 48.2 °F - 28.4 °F 46% 30.46 in 10.0 mi ESE 3.5 mph - N/A   Clear
11:55 AM 48.2 °F - 28.4 °F 46% 30.45 in 10.0 mi NNE 3.5 mph - N/A   Clear
12:15 PM 48.2 °F - 28.4 °F 46% 30.45 in 10.0 mi NE 5.8 mph - N/A   Clear
12:35 PM 51.8 °F - 30.2 °F 44% 30.44 in 10.0 mi East 3.5 mph - N/A   Clear
12:55 PM 51.8 °F - 28.4 °F 41% 30.44 in 10.0 mi NNE 15.0 mph - N/A   Clear
1:15 PM 51.8 °F - 28.4 °F 41% 30.42 in 10.0 mi NNE 12.7 mph - N/A   Clear
1:35 PM 51.8 °F - 30.2 °F 44% 30.41 in 10.0 mi East 10.4 mph - N/A   Clear
1:55 PM 53.6 °F - 30.2 °F 41% 30.39 in 10.0 mi ENE 8.1 mph - N/A   Clear
2:15 PM 53.6 °F - 30.2 °F 41% 30.38 in 10.0 mi ESE 9.2 mph - N/A   Clear
2:35 PM 53.6 °F - 30.2 °F 41% 30.37 in 10.0 mi East 10.4 mph - N/A   Clear
2:55 PM 53.6 °F - 30.2 °F 41% 30.38 in 10.0 mi NE 8.1 mph - N/A   Clear
3:15 PM 53.6 °F - 30.2 °F 41% 30.37 in 10.0 mi East 8.1 mph - N/A   Clear
3:35 PM 53.6 °F - 32.0 °F 44% 30.36 in 10.0 mi East 10.4 mph - N/A   Clear
3:55 PM 51.8 °F - 30.2 °F 44% 30.37 in 10.0 mi NE 9.2 mph - N/A   Clear
4:15 PM 51.8 °F - 32.0 °F 47% 30.36 in 10.0 mi ENE 12.7 mph - N/A   Clear
4:35 PM 51.8 °F - 32.0 °F 47% 30.35 in 10.0 mi ENE 11.5 mph 17.3 mph N/A   Clear
4:55 PM 51.8 °F - 32.0 °F 47% 30.35 in 10.0 mi NE 8.1 mph - N/A   Clear
5:15 PM 50.0 °F - 30.2 °F 47% 30.34 in 10.0 mi ENE 11.5 mph - N/A   Clear
5:35 PM 50.0 °F - 30.2 °F 47% 30.35 in 10.0 mi NE 11.5 mph - N/A   Clear
5:55 PM 48.2 °F - 32.0 °F 54% 30.34 in 10.0 mi NE 11.5 mph - N/A   Clear
6:15 PM 46.4 °F 41.9 °F 30.2 °F 53% 30.34 in 10.0 mi NNE 9.2 mph - N/A   Clear
6:35 PM 46.4 °F 42.4 °F 30.2 °F 53% 30.34 in 10.0 mi NE 8.1 mph - N/A   Clear
6:55 PM 46.4 °F 41.5 °F 32.0 °F 57% 30.34 in 10.0 mi NNE 10.4 mph - N/A   Clear
7:15 PM 44.6 °F 40.7 °F 30.2 °F 57% 30.33 in 10.0 mi NNE 6.9 mph - N/A   Clear
7:35 PM 44.6 °F 40.2 °F 32.0 °F 61% 30.32 in 10.0 mi NNE 8.1 mph - N/A   Clear
7:55 PM 44.6 °F 41.4 °F 30.2 °F 57% 30.32 in 10.0 mi NNE 5.8 mph - N/A   Clear
8:15 PM 42.8 °F 38.6 °F 30.2 °F 61% 30.31 in 10.0 mi NNE 6.9 mph - N/A   Clear
8:35 PM 42.8 °F 38.6 °F 30.2 °F 61% 30.31 in 10.0 mi NNE 6.9 mph - N/A   Clear
8:55 PM 42.8 °F 37.5 °F 30.2 °F 61% 30.31 in 10.0 mi NNE 9.2 mph - N/A   Clear
9:15 PM 41.0 °F 36.4 °F 30.2 °F 65% 30.31 in 10.0 mi NNE 6.9 mph - N/A   Clear
9:35 PM 41.0 °F 37.1 °F 30.2 °F 65% 30.30 in 10.0 mi North 5.8 mph - N/A   Clear
9:55 PM 41.0 °F 37.1 °F 30.2 °F 65% 30.30 in 10.0 mi North 5.8 mph - N/A   Clear
10:15 PM 44.6 °F 39.2 °F 32.0 °F 61% 30.29 in 10.0 mi East 10.4 mph - N/A   Clear
10:35 PM 44.6 °F 39.2 °F 32.0 °F 61% 30.28 in 10.0 mi ENE 10.4 mph - N/A   Clear
10:55 PM 44.6 °F 40.2 °F 32.0 °F 61% 30.27 in 10.0 mi ENE 8.1 mph - N/A   Clear
11:15 PM 44.6 °F 39.2 °F 32.0 °F 61% 30.25 in 10.0 mi ENE 10.4 mph - N/A   Clear
11:35 PM 46.4 °F 41.5 °F 32.0 °F 57% 30.24 in 10.0 mi East 10.4 mph - N/A   Clear
11:55 PM 46.4 °F 41.1 °F 32.0 °F 57% 30.23 in 10.0 mi East 11.5 mph - N/A   Clear